Location: Newark
(3.0500°N, 36.0167°E)
Time: 08:48:55
(UTC+00:00)

A-11 Canister half - Pass Details

Date: 28 August 2019
Orbit: 1527 x 1682 km, 47.3° (Epoch: 21 October)

Event Time Altitude Azimuth Distance (km) Brightness Sun altitude
Rises 04:13:32 0° 209° (SSW) 4,690 11.2 9.4°
Reaches altitude 10° 04:16:40 10° 204° (SSW) 3,718 10.7 10.2°
Maximum altitude 04:25:46 54° 129° (SE) 1,853 10.1 12.4°
Drops below altitude 10° 04:35:07 10° 54° (NE) 3,821 12.5 14.7°
Sets 04:38:21 0° 50° (NE) 4,827 12.7 15.5°
